DateTimeUTC,F1_A11,F1_S11,BsB_S11,BsG_S11,BsR_S11,BbsB_S11,BbsG_S11,BbsR_S11,BaB_A11,BaG_A11,BaR_A11,Tu_S11,T_S11,Uu_S11,U_S11,P_S11,T1_A11
2021-01-04T20:00:00Z,00000200,21000000,,,,,,,-000.12,-000.31,-000.10,15.6,23.1,,00.0,0635.4,30.7
2021-01-04T20:01:00Z,00000200,21000000,,,,,,,-000.23,0000.08,-000.27,15.6,23.1,,00.0,0635.4,30.7
2021-01-04T20:02:00Z,00000200,21000000,,,,,,,0000.01,-000.15,-000.30,15.6,23.1,,00.0,0635.3,30.7
2021-01-04T20:03:00Z,00000200,61000000,,,,,,,0000.23,0000.22,0000.51,15.6,23.2,,00.0,0635.3,30.6
2021-01-04T20:04:00Z,00000200,41000000,0000.77,-000.17,0000.16,0000.09,-000.00,0000.17,0000.03,-000.17,0000.04,15.8,22.9,,00.0,0636.1,30.6
2021-01-04T20:05:00Z,00000200,01000000,0000.20,-000.19,0000.40,0000.41,0000.02,0000.14,0000.06,0000.63,0000.22,15.9,22.8,,00.0,0636.2,30.6
2021-01-04T20:05:59Z,,01000000,0000.20,-000.19,0000.40,0000.41,0000.02,0000.14,,,,15.9,22.8,,00.0,0636.2,
2021-01-04T20:06:00Z,,01000000,0000.81,0000.21,0000.01,0000.34,-000.12,-000.06,,,,15.9,22.8,,00.0,0637.1,
2021-01-04T20:06:00Z,00010200,01000000,0000.81,0000.21,0000.01,0000.34,-000.12,-000.06,,,,15.9,22.8,,00.0,0637.1,31.3
2021-01-04T20:06:02Z,00010200,01000000,0000.81,0000.21,0000.01,0000.34,-000.12,-000.06,,,,15.9,22.8,,00.0,0637.1,31.3
2021-01-04T20:07:00Z,00010200,01000000,0001.12,0000.15,0000.05,-000.14,-000.12,0000.01,,,,15.9,22.8,,00.0,0639.7,31.2
2021-01-04T20:08:00Z,00010200,01000000,0000.54,0000.22,0000.44,0000.23,-000.04,-000.06,,,,16.5,22.9,,00.0,0652.1,29.2
2021-01-04T20:09:00Z,00010200,01000000,0000.63,0000.24,0000.05,-000.40,-000.09,0000.17,,,,16.9,23.0,,00.0,0653.0,29.0
2021-01-04T20:10:00Z,00010200,01000000,0000.21,-000.05,0000.35,0000.36,-000.07,0000.07,,,,17.1,23.0,,00.0,0652.9,28.2
2021-01-04T20:11:00Z,00010200,01000000,0000.37,0000.19,0000.05,-000.09,-000.04,-000.03,,,,17.2,23.1,,00.0,0652.8,27.1
2021-01-04T20:12:00Z,00010200,01000000,0000.19,0000.16,0000.14,0000.16,-000.20,-000.11,,,,17.3,23.1,,00.0,0652.9,26.6
2021-01-04T20:13:00Z,00010200,01000000,-000.08,-000.12,0000.20,0000.13,-000.02,0000.26,,,,17.2,23.2,,00.0,0644.4,26.4
2021-01-04T20:14:00Z,00010200,01000000,0000.40,-000.10,0000.21,-000.23,-000.06,-000.04,,,,16.8,23.2,,00.0,0637.2,27.9
2021-01-04T20:15:00Z,00010200,01000000,0000.39,-000.03,0000.24,0000.24,0000.13,-000.10,,,,16.8,23.2,,00.0,0637.2,29.9
2021-01-04T20:15:46Z,,01000000,0000.39,-000.03,0000.24,0000.24,0000.13,-000.10,,,,16.8,23.2,,00.0,0637.2,
2021-01-04T20:15:54Z,00010200,01000000,0000.39,-000.03,0000.24,0000.24,0000.13,-000.10,,,,16.8,23.2,,00.0,0637.2,30.7
2021-01-04T20:15:55Z,,01000000,0000.39,-000.03,0000.24,0000.24,0000.13,-000.10,,,,16.8,23.2,,00.0,0637.2,
2021-01-04T20:16:00Z,,01000000,0000.62,0000.13,0000.48,0000.19,0000.07,0000.23,,,,16.8,23.1,,00.0,0636.3,
2021-01-04T20:16:03Z,00000200,01000000,0000.62,0000.13,0000.48,0000.19,0000.07,0000.23,-002.17,-003.24,-000.52,16.8,23.1,,00.0,0636.3,30.6
2021-01-04T20:17:00Z,00000200,01000000,0000.32,0000.29,0000.03,-000.12,-000.08,-000.03,-000.69,-000.68,0000.26,16.7,23.1,,00.0,0636.3,30.9
2021-01-04T20:18:00Z,00000200,01000000,0000.54,0000.04,0000.05,0000.36,0000.03,0000.02,-000.19,0000.01,0000.29,16.6,23.1,,00.0,0636.3,30.9
2021-01-04T20:19:00Z,00000200,01000000,0000.26,-000.06,0000.09,-000.15,0000.08,0000.13,-000.10,-000.09,0000.25,16.6,23.0,,00.0,0636.3,30.9
2021-01-04T20:20:00Z,00000200,01000000,0000.37,0000.18,0000.12,0000.06,0000.00,-000.06,-000.34,-000.19,0000.16,16.5,23.0,,00.0,0636.3,30.8
2021-01-04T20:21:00Z,00000200,01000000,0000.45,0000.01,0000.10,0000.28,0000.25,0000.08,-000.17,0000.39,0000.01,16.4,22.9,,00.0,0636.3,30.7
2021-01-04T20:22:00Z,00000200,01000000,0000.62,0000.38,0000.12,0000.01,0000.09,0000.04,-000.02,-000.45,0000.23,16.3,22.9,,00.0,0636.3,30.6
2021-01-04T20:23:00Z,00000200,01000000,0000.29,0000.11,0000.12,0000.13,0000.09,0000.04,-000.02,-000.06,-000.12,16.3,22.9,,00.0,0636.3,30.6
2021-01-04T20:24:00Z,00000200,01000000,0000.66,0000.11,0000.01,-000.15,0000.02,-000.10,-000.25,-000.15,-000.15,16.2,22.9,,00.0,0636.4,30.7
2021-01-04T20:25:00Z,00000200,01000000,0000.71,0000.00,-000.05,0000.16,0000.13,0000.04,-000.12,0000.38,0000.12,16.2,22.9,,00.0,0636.4,30.7
2021-01-04T20:26:00Z,00000200,01000000,0000.13,0000.14,0000.10,0000.27,0000.09,-000.02,-000.12,0000.26,0000.37,16.2,22.9,,00.0,0636.4,30.7
2021-01-04T20:27:00Z,00000200,01000000,0000.53,-000.15,0000.14,-000.08,-000.01,0000.17,0000.16,-000.42,0000.22,16.2,22.9,,00.0,0636.4,30.7
2021-01-04T20:28:00Z,00000200,01000000,0000.60,-000.11,0000.18,0000.03,0000.10,-000.12,0000.03,0000.22,-000.07,16.2,22.9,,00.0,0636.4,30.8
2021-01-04T20:29:00Z,00000200,01000000,0000.03,0000.35,-000.02,0000.07,-000.12,-000.04,-000.35,-000.09,-000.03,16.3,23.0,,00.0,0636.5,30.8
2021-01-04T20:30:00Z,00000200,01000000,0000.49,-000.02,-000.09,0000.10,0000.11,-000.40,0000.02,0000.05,-000.34,16.3,23.0,,00.0,0636.5,30.8
2021-01-04T20:31:00Z,00000200,01000000,-000.14,0000.23,0000.05,-000.11,0000.07,-000.08,0000.30,-000.34,0000.08,16.4,23.0,,00.0,0636.5,30.8
2021-01-04T20:32:00Z,00000200,01000000,0001.31,-000.07,0000.20,0000.11,0000.25,0000.11,-000.43,-000.14,0000.23,16.4,23.0,,00.0,0636.5,30.8
2021-01-04T20:33:00Z,00000200,01000000,0000.04,-000.12,0000.11,0000.55,0000.14,0000.10,0000.11,0000.31,0000.04,16.3,23.0,,00.0,0636.6,30.8
2021-01-04T20:34:00Z,00000200,01000000,0000.34,0000.06,0000.22,0000.33,0000.03,0000.11,0000.05,0000.05,-000.04,16.3,23.0,,00.0,0636.6,30.8
2021-01-04T20:35:00Z,00000200,01000000,0000.15,0000.25,0000.19,0000.03,-000.22,-000.01,-000.17,-000.23,-000.16,16.3,23.0,,00.0,0636.6,30.8
2021-01-04T20:36:00Z,00000200,01000000,0000.02,0000.10,0000.08,-000.03,-000.07,0000.09,0000.16,0000.11,-000.18,16.2,23.0,,00.0,0636.7,30.8
2021-01-04T20:37:00Z,00000200,01000000,-000.02,0000.20,0000.38,-000.37,-000.02,-000.02,-000.24,0000.14,0000.39,16.2,23.0,,00.0,0636.8,30.8
2021-01-04T20:38:00Z,00000200,01000000,0000.24,0000.04,0000.17,0000.52,-000.12,-000.09,-000.17,-000.35,-000.08,16.1,22.9,,00.0,0636.8,30.8
2021-01-04T20:39:00Z,00000200,01000000,0000.50,0000.12,0000.33,-000.16,0000.07,0000.05,0000.09,0000.17,0000.07,16.1,22.9,,00.0,0636.8,30.8
2021-01-04T20:40:00Z,00000200,01000000,0000.70,0000.19,0000.10,0000.22,0000.18,-000.16,0000.11,0000.04,0000.29,16.1,22.9,,00.0,0636.7,30.8
2021-01-04T20:41:00Z,00000200,01000000,0000.13,-000.02,-000.03,0000.73,0000.09,-000.07,0000.13,0000.11,0000.20,16.1,22.9,,00.0,0636.7,30.8
2021-01-04T20:42:00Z,00000200,01000000,0000.70,0000.24,0000.13,-000.09,0000.17,-000.14,-000.04,0000.20,0000.18,16.1,22.9,,00.0,0636.8,30.8
2021-01-04T20:43:00Z,00000200,01000000,0000.74,0000.22,0000.08,-000.46,-000.05,-000.02,0000.07,0000.13,-000.23,16.2,22.9,,00.0,0636.8,30.8
2021-01-04T20:44:00Z,00000200,01000000,0000.17,-000.10,0000.07,0000.31,0000.06,-000.08,0000.06,-000.08,0000.06,16.2,22.9,,00.0,0636.9,30.8
2021-01-04T20:45:00Z,00000200,01000000,0000.90,0000.11,0000.09,-000.26,0000.03,-000.12,-000.38,-000.35,-000.28,16.3,23.0,,00.0,0636.9,30.8
2021-01-04T20:46:00Z,00000200,01000000,0000.43,0000.10,0000.01,-000.42,0000.18,0000.01,0000.29,0000.25,0000.47,16.2,23.0,,00.0,0636.9,30.8
2021-01-04T20:47:00Z,00000200,01000000,0000.52,0000.09,0000.42,0000.41,-000.27,0000.28,-000.13,0000.02,-000.31,16.2,22.9,,00.0,0636.9,30.8
2021-01-04T20:48:00Z,00000200,01000000,-000.23,-000.05,0000.28,0000.45,0000.03,0000.00,-000.04,-000.28,0000.06,16.1,22.9,,00.0,0636.9,30.8
2021-01-04T20:49:00Z,00000200,01000000,0000.59,0000.17,0000.20,-000.32,-000.04,-000.04,-000.25,0000.20,-000.22,16.0,22.9,,00.0,0636.9,30.7
2021-01-04T20:50:00Z,00000200,01000000,0000.28,0000.15,0000.03,-000.18,0000.11,-000.20,0000.30,0000.04,0000.81,16.0,22.8,,00.0,0636.9,30.7
2021-01-04T20:51:00Z,00000200,01000000,0000.56,0000.01,0000.11,-000.26,0000.06,-000.22,0000.28,0000.09,-000.27,15.9,22.8,,00.0,0636.9,30.7
2021-01-04T20:52:00Z,00000200,01000000,-000.19,-000.02,0000.29,-000.18,-000.12,0000.27,-000.49,0000.01,0000.14,15.9,22.8,,00.0,0636.9,30.7
2021-01-04T20:53:00Z,00000200,01000000,0000.11,0000.16,0000.32,0000.58,-000.13,0000.07,0000.24,-000.06,-000.10,15.8,22.7,,00.0,0636.8,30.7
2021-01-04T20:54:00Z,00000200,01000000,0000.17,0000.43,0000.06,0000.26,0000.19,-000.08,-000.39,-000.46,0000.18,15.8,22.7,,00.0,0636.8,30.7
2021-01-04T20:55:00Z,00000200,01000000,0000.80,-000.01,0000.05,0000.47,0000.22,-000.07,0000.05,0000.31,-000.19,15.8,22.7,,00.0,0636.8,30.7
2021-01-04T20:56:00Z,00000200,01000000,0000.19,0000.04,0000.03,0000.25,-000.08,-000.27,0000.32,0000.07,0000.10,15.8,22.7,,00.0,0636.8,30.7
2021-01-04T20:57:00Z,00000200,41000000,,,,,,,0000.33,0000.48,0000.71,15.9,22.7,,00.0,0636.8,30.7
2021-01-04T20:58:00Z,00000200,61000000,,,,,,,0000.10,0000.11,-000.04,15.6,22.9,,00.0,0635.9,30.8
2021-01-04T20:59:00Z,00000200,21000000,,,,,,,-000.16,-000.33,-000.14,15.6,23.0,,00.0,0635.9,30.8
